Content
SEND FEEDBACK

Daily
Averages
Monthly
Summary
United States of America

SOUTH LAKE TAHOE, CALIFORNIA


Home > North America > United States > California
Elevation: 6263 feet     Latitude: 38 53N     Longitude: 119 59W

WEATHER
 
SELECT A DAY
Number of Records: 177,182;   Date Range: 1/1/95 - 10/29/14
 
SHARE

PRINT THIS DATA

[ ← Previous Day ]
WEATHER ALMANAC - JANUARY 9, 2013
[ Next Day → ]
[ °C ]   °F
Weather ElementAverageHighLow
Temperature30.4 °F50 °F (9:53 am)17.6 °F (4:01 am)
Dewpoint21.4 °F28.9 °F (7:53 pm)12.9 °F (4:53 am)
Humidity72.5 %87 % (9:03 pm)29 % (10:53 am)
Barometer29.93 in30.25 in (1:53 am)29.65 in (8:53 pm)
Wind Speed9 mph24.2 mph (9:53 am)
Wind Gust38 mph (10:53 am)
Weather ElementAverage
Visibility5.2 mi
Wind DirectionSSE (147 °)

Weather ElementTotal
Precipitation0.25 in
Heating Degree Days31.2 (Base 65)
Averaged from 47 records on January 9, 2013
WEATHER CONDITIONS BREAKOUT
WIND DIRECTION BREAKOUT
WEATHER BY HOUR - JANUARY 9, 2013
[ °C ]   °F
Local TimeTemperatureDewpointHumidityBarometerVisibilityWind DirectionWind SpeedGust SpeedPrecipitationEventsConditions
12:17 AM21.2 °F17.6 °F86 %30.24 in7.0 miSouth (190°)4.6 mphClear
12:53 AM21.9 °F18.0 °F85 %30.24 in10.0 miCalmClear
1:53 AM21.0 °F17.1 °F85 %30.25 in8.0 miCalmClear
2:01 AM21.2 °F17.6 °F86 %30.24 in8.0 miCalmScattered Clouds
2:12 AM21.2 °F17.6 °F86 %30.23 in8.0 miCalmMostly Cloudy
2:53 AM19.9 °F16.0 °F85 %30.22 in8.0 miCalmMostly Cloudy
3:15 AM19.4 °F15.8 °F86 %30.20 in8.0 miCalmScattered Clouds
3:53 AM18.0 °F14.0 °F84 %30.20 in8.0 miCalmClear
4:01 AM17.6 °F14.0 °F86 %30.17 in8.0 miCalmPartly Cloudy
4:53 AM18.0 °F12.9 °F81 %30.18 in10.0 miNNE (30°)5.8 mphClear
5:21 AM19.4 °F15.8 °F86 %30.14 in5.0 miCalmPartly Cloudy
5:53 AM21.0 °F17.1 °F85 %30.17 in10.0 miVariable3.5 mphClear
6:53 AM21.0 °F16.0 °F81 %30.15 in10.0 miCalmClear
7:53 AM33.1 °F21.9 °F64 %30.09 in10.0 miSSW (200°)6.9 mphClear
8:53 AM48.9 °F19.9 °F32 %30.03 in10.0 miSSW (200°)20.7 mph34.5 mphClear
9:53 AM50.0 °F21.0 °F32 %30.00 in10.0 miSouth (190°)24.2 mph35.7 mphClear
10:53 AM50.0 °F19.0 °F29 %30.00 in10.0 miSSW (200°)20.7 mph38.0 mphClear
11:53 AM48.9 °F21.0 °F33 %29.96 in10.0 miSSW (210°)12.7 mph33.4 mphClear
12:53 PM48.0 °F23.0 °F37 %29.93 in10.0 miSSW (210°)13.8 mph26.5 mphClear
1:53 PM46.9 °F23.0 °F39 %29.90 in10.0 miSSW (210°)15.0 mph31.1 mphPartly Cloudy
2:53 PM45.0 °F24.1 °F44 %29.89 in10.0 miSSW (210°)16.1 mph25.3 mphMostly Cloudy
3:53 PM42.1 °F25.0 °F51 %29.88 in10.0 miSSW (200°)20.7 mph31.1 mphOvercast
4:53 PM41.0 °F25.0 °F53 %29.86 in10.0 miSSW (210°)13.8 mph25.3 mph0.00 inOvercast
5:53 PM39.9 °F26.1 °F58 %29.81 in10.0 miSSW (210°)12.7 mph23.0 mphOvercast
6:43 PM37.4 °F28.4 °F70 %29.79 in2.5 miSouth (190°)17.3 mph23.0 mph0.00 inSnowLight Snow
6:53 PM35.1 °F28.0 °F76 %29.81 in1.0 miSSW (200°)10.4 mph19.6 mph0.00 inSnowLight Snow
7:05 PM33.8 °F28.4 °F81 %29.80 in1.0 miSSW (210°)8.1 mph0.00 inSnowLight Snow
7:10 PM33.8 °F28.4 °F81 %29.80 in0.8 miSW (230°)8.1 mph0.00 inSnowLight Snow
7:18 PM33.8 °F28.4 °F81 %29.79 in0.5 miSouth (190°)12.7 mph16.1 mph0.01 inSnowSnow
7:41 PM33.8 °F28.4 °F81 %29.77 in1.0 miSouth (190°)10.4 mph0.02 inSnowLight Snow
7:51 PM33.8 °F28.4 °F81 %29.76 in1.2 miSouth (190°)10.4 mph0.02 inSnowLight Snow
7:53 PM33.1 °F28.9 °F85 %29.75 in1.2 miSSW (200°)9.2 mph0.02 inSnowLight Snow
8:03 PM33.8 °F28.4 °F81 %29.75 in1.5 miSouth (190°)10.4 mph0.00 inSnowLight Snow
8:46 PM33.8 °F28.4 °F81 %29.72 in1.0 miSSW (200°)11.5 mph19.6 mph0.02 inSnowLight Snow
8:53 PM33.1 °F28.0 °F82 %29.65 in1.0 miSouth (190°)11.5 mph0.02 inSnowLight Snow
9:03 PM32.0 °F28.4 °F87 %29.72 in0.8 miSouth (190°)10.4 mph0.00 inSnowLight Snow
9:53 PM28.9 °F25.0 °F85 %29.70 in0.2 miSSW (210°)5.8 mph0.03 inFog-SnowHeavy Snow
10:06 PM26.6 °F21.2 °F80 %29.78 in0.2 miSSW (200°)11.5 mph23.0 mph0.01 inSnowHeavy Snow
10:28 PM24.8 °F19.4 °F80 %29.80 in0.5 miSouth (180°)10.4 mph21.9 mph0.02 inSnowSnow
10:53 PM24.1 °F17.1 °F75 %29.75 in1.0 miSouth (190°)9.2 mph0.02 inSnowLight Snow
11:00 PM24.8 °F17.6 °F74 %29.81 in1.2 miSouth (190°)11.5 mph0.00 inSnowLight Snow
11:13 PM24.8 °F17.6 °F74 %29.81 in0.8 miSouth (180°)15.0 mph20.7 mph0.01 inSnowLight Snow
11:22 PM23.0 °F17.6 °F80 %29.79 in0.5 miSouth (170°)3.5 mph20.7 mph0.01 inSnowSnow
11:33 PM23.0 °F17.6 °F80 %29.79 in1.0 miSouth (170°)6.9 mph0.01 inSnowLight Snow
11:41 PM23.0 °F17.6 °F80 %29.79 in1.5 miSSW (200°)8.1 mph0.01 inSnowLight Snow
11:47 PM23.0 °F17.6 °F80 %29.78 in2.0 miSouth (190°)8.1 mph0.01 inSnowLight Snow
11:53 PM23.0 °F17.1 °F78 %29.75 in2.5 miSouth (190°)10.4 mph0.01 inSnowLight Snow
Hourly data recorded from KTVL, located miles away from South Lake Tahoe, California







STORIES FROM OUR PARTNERS